Погода в Кобурге

Германия     50°15′34″N   10°57′36″E
темп.,
°C
ветер,
м/с
пор.,
м/с
влажн.,
%
обл.,
%
осадки,
мм/ч
давл.,
гПа
погр.,
м
11 мая, вт
вт1123:00+13зсз2398100 1.7 100888
02:00+12зсз249896 2.8 1007162
05:00+12сз1297100 0.7 100783
08:00+13з2598100 1.1 1007255
11:00+14св1292100 0.0 1006379
14:00+14зюз1193100 0.3 1007154
17:00+13з1496100 0.4 1006160
20:00+13з3697100 1.6 1006269
12 мая, ср
ср1223:00+11з51198100 3.6 1008649
02:00+11зюз4798100 5.1 1008424
05:00+10з4998100 1.6 1009533
08:00+10зсз3897100 2.8 1010489
11:00+10з2697100 1.4 1010421
14:00+10зсз2597100 4.0 1010317
17:00+10ссз2497100 2.6 1010294
20:00+9сз1297100 3.5 101085
13 мая, чт
чт1323:00+9зсз1399100 2.1 1010126
02:00+9зсз2599100 4.6 1009209
05:00+8сз2698100 2.9 1008286
08:00+8зсз3697100 6.1 1007347
11:00+8зсз4896100 4.5 1007564
14:00+8зсз4996100 6.9 1007648
17:00+8зсз4896100 1.4 1007611
20:00+7з3698100 4.4 1007350
14 мая, пт
пт1423:00+7зюз3799100 2.5 1007368
02:00+7зюз2699100 3.7 1008361
05:00+7зюз1598100 0.1 1007207
08:00+9з2492100 0.2 1008438
11:00+11зюз3482100 0.4 1008937
14:00+11зюз3584100 0.8 1009637
17:00+13зсз347199 0.3 1009944
20:00+10з22885 0.6 101036
15 мая, сб
сб1523:00+7всв009412 0.0 101110
02:00+5юз00965 0.0 101210
05:00+5юв00972 0.0 101310
08:00+8ю118922 0.0 1014203
11:00+14зюз23654 0.1 10141076
14:00+16з34606 1.2 10131521
17:00+17зсз24514 0.6 10131579
20:00+13з127927 0.9 101321